Location: Ceske Budejovice
(48.9830°N, 14.4670°E)
Time: 00:47:35
(UTC+02:00)

ISS - Pass Details

Date: 29 March 2019
Orbit: 408 x 410 km, 51.6° (Epoch: 26 April)

Event Time Altitude Azimuth Distance (km) Brightness Sun altitude
Rises 20:03:40 0° 279° (W) 2,337 1.5 -15.9°
Reaches altitude 10° 20:05:47 10° 284° (WNW) 1,475 0.3 -16.2°
Maximum altitude 20:09:01 51° 2° (N) 523 -3.2 -16.7°
Enters shadow 20:10:13 32° 61° (ENE) 731 -2.9 -16.8°
